Hourly Data Report for October 31, 2014

All times are specified in Local Standard Time (LST). Add 1 hour to adjust for Daylight Saving Time where and when it is observed.

MONCTON INTL A
NEW BRUNSWICK

46°06'44.000" N
64°40'43.000" W
70.70 m
8103201
71705
YQM

Download Data

Hourly Data (October 2014)
Hourly Data Report for October 31, 2014
Temp Definition
°C
Dew Point Temp Definition
°C
Rel Hum Definition
%
Wind Dir Definition
10's deg

Wind Spd Definition
km/h
Visibility Definition
km
Stn Press Definition
kPa
Hmdx Definition


Wind Chill Definition


Weather Definition


TIME
00:00 Legend Double Dagger 4.6 -1.6 64 30 10 24.1 100.47     LegendNANA
01:00 Legend Double Dagger 4.3 -2.8 60 24 7 24.1 100.50     LegendNANA
02:00 Legend Double Dagger 3.2 -2.1 68 24 10 24.1 100.55     Mainly Clear
03:00 Legend Double Dagger 2.3 -1.3 77 24 9 24.1 100.58     LegendNANA
04:00 Legend Double Dagger 2.3 -1.0 79 23 10 24.1 100.63     LegendNANA
05:00 Legend Double Dagger 2.0 -0.3 85 23 8 24.1 100.69     Mostly Cloudy
06:00 Legend Double Dagger 1.6 -0.7 85 28 7 24.1 100.70     LegendNANA
07:00 Legend Double Dagger 1.5 -0.9 84 22 5 24.1 100.77     LegendNANA
08:00 Legend Double Dagger 2.2 -1.8 75 32 9 24.1 100.84     Mostly Cloudy
09:00 Legend Double Dagger 3.7 -1.5 69 27 4 24.1 100.92     LegendNANA
10:00 Legend Double Dagger 5.3 -1.8 60 27 3 24.1 100.95     LegendNANA
11:00 Legend Double Dagger 5.8 -1.6 59 20 4 24.1 100.98     Mostly Cloudy
12:00 Legend Double Dagger 7.1 -1.8 53 22 3 24.1 100.95     LegendNANA
13:00 Legend Double Dagger 7.3 -2.2 51 36 3 24.1 100.90     LegendNANA
14:00 Legend Double Dagger 7.8 -3.7 44 5 4 24.1 100.91     Mostly Cloudy
15:00 Legend Double Dagger 8.0 -2.9 46 12 5 24.1 100.94     LegendNANA
16:00 Legend Double Dagger 7.8 -1.4 52 6 6 24.1 100.98     LegendNANA
17:00 Legend Double Dagger 6.4 -0.6 61 5 9 24.1 101.01     Mostly Cloudy
18:00 Legend Double Dagger 5.2 -1.3 63 6 8 24.1 101.04     LegendNANA
19:00 Legend Double Dagger 4.8 -0.8 67 10 10 24.1 101.09     LegendNANA
20:00 Legend Double Dagger 4.9 -1.1 65 8 9 24.1 101.12     Cloudy
21:00 Legend Double Dagger 5.1 -0.7 66 8 10 24.1 101.17     LegendNANA
22:00 Legend Double Dagger 4.4 -0.2 72 9 9 24.1 101.12     LegendNANA
23:00 Legend Double Dagger 4.6 -0.2 71 9 4 24.1 101.15     Cloudy

Notes on Data Quality.

Legend

  • E = Estimated
  • M = Missing
  • NA = Not Available
  • ‡ = Partner data that is not subject to review by the National Climate Archives
Date modified: